Location: The Jewett Observatory
(46.7288°N, 117.1525°W)
Time: 04:23:46
(UTC-08:00)

Meteor 1-28 Rocket - Visible Passes

Search period start: 30 January 2015 00:00
Search period end: 09 February 2015 00:00
Orbit: 511 x 533 km, 97.2° (Epoch: 28 January)

Date Brightness Start Highest point End Pass type
(mag) Time Alt. Az. Time Alt. Az. Time Alt. Az.
30 Jan 5.8 05:59:31 10° ESE 06:02:19 20° ENE 06:05:11 10° NNE visible
31 Jan 6.1 05:47:23 10° E 05:49:35 15° ENE 05:51:55 10° NNE visible
01 Feb 6.3 05:35:37 10° E 05:36:53 12° ENE 05:38:18 10° NE visible
04 Feb 4.5 06:28:38 10° SE 06:32:11 42° ENE 06:35:46 10° N visible
05 Feb 5.2 06:16:05 10° SE 06:19:23 30° ENE 06:22:45 10° N visible
06 Feb 5.7 06:03:40 10° ESE 06:06:36 23° ENE 06:09:38 10° NNE visible
07 Feb 6.1 05:51:24 10° ESE 05:53:51 17° ENE 05:56:24 10° NNE visible
08 Feb 6.2 05:39:25 10° E 05:41:06 13° ENE 05:42:57 10° NE visible
